Location: Pasadena, ca
(34.1243°N, 118.1037°W)
Time: 08:58:15
(UTC-07:00)

Tiangong 1 - Visible Passes

Search period start: 24 September 2017 00:00
Search period end: 04 October 2017 00:00
Orbit: 303 x 328 km, 42.8° (Epoch: 24 September)

Date Brightness Start Highest point End Pass type
(mag) Time Alt. Az. Time Alt. Az. Time Alt. Az.
24 Sep 4.1 04:40:26 13° NE 04:40:26 13° NE 04:40:56 10° ENE visible
24 Sep 0.6 06:11:42 10° WNW 06:14:21 76° SSW 06:17:01 10° SE visible
25 Sep 3.3 04:53:40 21° ENE 04:53:40 21° ENE 04:54:57 10° E visible
26 Sep 2.3 05:06:57 31° ESE 05:06:57 31° ESE 05:08:32 10° ESE visible
27 Sep 2.6 05:20:18 21° SSE 05:20:18 21° SSE 05:21:29 10° SSE visible
02 Oct 1.9 19:26:49 10° SSW 19:29:09 26° SE 19:29:49 23° ESE visible
03 Oct 0.5 19:38:59 10° WSW 19:41:39 78° SSE 19:42:17 47° ENE visible
